TimeMST,TemperatureF,Dew PointF,Humidity,Sea Level PressureIn,VisibilityMPH,Wind Direction,Wind SpeedMPH,Gust SpeedMPH,PrecipitationIn,Events,Conditions,WindDirDegrees,DateUTC
12:54 AM,35.1,15.1,44,29.95,8.0,SSW,6.9,-,N/A,,Clear,210,2012-12-03 07:54:00
1:54 AM,37.9,15.1,39,29.94,10.0,Calm,Calm,-,N/A,,Partly Cloudy,0,2012-12-03 08:54:00
2:54 AM,46.9,23.0,39,29.93,10.0,West,11.5,-,N/A,,Partly Cloudy,270,2012-12-03 09:54:00
3:54 AM,37.9,18.0,45,29.98,10.0,Calm,Calm,-,N/A,,Clear,0,2012-12-03 10:54:00
4:54 AM,39.9,26.1,58,30.01,10.0,Calm,Calm,-,N/A,,Clear,0,2012-12-03 11:54:00
5:54 AM,39.0,27.0,62,30.06,10.0,West,10.4,-,N/A,,Clear,260,2012-12-03 12:54:00
6:54 AM,37.9,27.0,65,30.10,10.0,Calm,Calm,-,N/A,,Clear,0,2012-12-03 13:54:00
7:54 AM,35.6,24.8,65,30.19,10.0,South,3.5,-,N/A,,Clear,170,2012-12-03 14:54:00
8:54 AM,45.0,28.9,53,30.09,10.0,South,3.5,-,N/A,,Clear,170,2012-12-03 15:54:00
9:54 AM,52.0,35.1,53,30.09,10.0,WNW,8.1,-,N/A,,Clear,290,2012-12-03 16:54:00
10:54 AM,55.0,34.0,45,30.09,10.0,NW,6.9,-,N/A,,Clear,310,2012-12-03 17:54:00
11:54 AM,57.0,34.0,42,30.07,10.0,West,6.9,-,N/A,,Clear,270,2012-12-03 18:54:00
12:54 PM,57.0,33.1,40,30.06,10.0,Variable,5.8,-,N/A,,Clear,0,2012-12-03 19:54:00
1:54 PM,59.0,32.0,36,30.02,10.0,NW,9.2,16.1,N/A,,Clear,320,2012-12-03 20:54:00
2:54 PM,59.0,33.1,38,29.98,10.0,Variable,4.6,18.4,N/A,,Clear,0,2012-12-03 21:54:00
3:54 PM,60.1,32.0,35,30.01,10.0,NW,9.2,-,N/A,,Clear,310,2012-12-03 22:54:00
4:54 PM,55.0,32.0,42,30.03,10.0,NNW,6.9,-,N/A,,Clear,340,2012-12-03 23:54:00
5:54 PM,51.1,30.0,44,30.09,10.0,NNW,5.8,-,N/A,,Clear,340,2012-12-04 00:54:00
6:54 PM,44.1,28.0,53,30.16,10.0,Calm,Calm,-,N/A,,Clear,0,2012-12-04 01:54:00
7:54 PM,41.0,28.9,62,30.19,10.0,Calm,Calm,-,N/A,,Clear,0,2012-12-04 02:54:00
8:54 PM,37.9,27.0,65,30.17,8.0,SW,4.6,-,N/A,,Clear,220,2012-12-04 03:54:00
9:54 PM,37.0,26.1,65,30.17,10.0,ESE,3.5,-,N/A,,Clear,120,2012-12-04 04:54:00
10:54 PM,37.0,27.0,67,30.18,10.0,SSE,4.6,-,N/A,,Clear,160,2012-12-04 05:54:00
11:54 PM,35.1,26.1,70,30.19,10.0,South,3.5,-,N/A,,Clear,170,2012-12-04 06:54:00